STARLINK-1907 (47177 NORAD) Tracking and Keplerian Element Data
This shows tracking and keplerian element data for the satellite.
Feedback or suggestion? Click here.
Element | Value |
Catalog | 47177 |
Name | STARLINK-1907 |
Epoch Orbit | 180 |
Epoch Day | 60.91667824 |
Epoch Year | 2021 |
RAAN | 243.7394 |
Inclination | 53.0579 |
Eccentricity | 0.0001446 |
Argument of Perigee | 65.8979 |
Mean Anonmoly | 154.56 |
Mean Motion | 15.06994747 |
Decay Rate | -0.00770953 |
L1 | 1 47177U 20088BH 21060.91667824 -.00770953 00000-0 -54383-1 0 9993 |
L2 | 2 47177 53.0579 243.7394 0001446 65.8979 154.5600 15.06994747 1800 |
Live tracking and technical data element details for STARLINK-1907 (NORAD 47177). STARLINK-1907 can be tracked NOW for your location showing map with azimuth and elevation plus other details from your city location.
Track the satellite on the map from your city or location and see movement details for azimuth, elevation, latitude, longitude, range, height, and movement on the map or in text.
IsCatalogInMostPopularTable: catalog: 47177, numindb: 38
Update: records affected: 1
GetName: 47177 STARLINK-1907
Hit Count: updated at: Tue, 02 Mar 2021 14:02:12 GMT